Location: New Frontier Mobile Home Park
(32.8448°N, 116.9675°W)
Time: 22:48:36
(UTC+00:00)

ATLAS 2AS CENTAUR R/B - Pass Details

Date: 14 July 2020
Orbit: 930 x 1282 km, 63.7° (Epoch: 19 July)

Event Time Altitude Azimuth Distance (km) Brightness Sun altitude
Rises 05:17:27 0° 332° (NNW) 4,105 7.1 -24.0°
Reaches altitude 10° 05:20:19 10° 334° (NNW) 3,092 6.1 -24.4°
Maximum altitude 05:27:41 73° 59° (ENE) 1,144 2.7 -25.3°
Enters shadow 05:29:19 54° 124° (SE) 1,294 2.7 -25.5°
